EW0603 Weather Reports


time (UTC)temp
C
wind
direction
speed
KPH
gust
KPH
rain 1hr
cm
rain 24hr
cm
rain mn
cm
humidity
%
barometer
mb
20260504192444 23 244 9.7 25.7 0.00 0.00 0.00 44 998.9
20260504192338 23 245 9.7 24.1 0.00 0.00 0.00 43 998.9
20260504192231 23 267 9.7 24.1 0.00 0.00 0.00 42 998.9
20260504192126 23 242 9.7 24.1 0.00 0.00 0.00 41 998.9
20260504192020 23 236 9.7 24.1 0.00 0.00 0.00 40 999.0
20260504191912 23 236 9.7 24.1 0.00 0.00 0.00 40 999.0
20260504191805 23 188 8.0 27.4 0.00 0.00 0.00 40 999.0
20260504191703 23 242 9.7 27.4 0.00 0.00 0.00 40 999.0
20260504191601 23 204 9.7 27.4 0.00 0.00 0.00 42 999.0
20260504191234 23 257 9.7 27.4 0.00 0.00 0.00 40 999.0
20260504191129 23 205 9.7 27.4 0.00 0.00 0.00 41 999.0
20260504191025 23 193 11.3 27.4 0.00 0.00 0.00 41 999.0
20260504190921 23 155 11.3 27.4 0.00 0.00 0.00 43 999.1
20260504190818 23 209 11.3 29.0 0.00 0.00 0.00 43 999.0
20260504190716 23 209 11.3 29.0 0.00 0.00 0.00 41 999.1
20260504190612 23 178 11.3 29.0 0.00 0.00 0.00 40 999.0
20260504190251 23 209 9.7 29.0 0.00 0.00 0.00 41 999.2
20260504190144 23 229 9.7 29.0 0.00 0.00 0.00 41 999.2
20260504190037 23 186 9.7 29.0 0.00 0.00 0.00 41 999.1
20260504185935 23 230 9.7 29.0 0.00 0.00 0.00 41 999.1
20260504185828 23 200 9.7 29.0 0.00 0.00 0.00 41 999.2
20260504185725 23 215 9.7 29.0 0.00 0.00 0.00 41 999.1
20260504185619 23 192 9.7 29.0 0.00 0.00 0.00 42 999.1
20260504185514 23 180 9.7 29.0 0.00 0.00 0.00 42 999.3
20260504185150 23 200 8.0 29.0 0.00 0.00 0.00 41 999.3
20260504184609 23 232 4.8 17.7 0.00 0.00 0.00 42 999.3
20260504184505 23 190 4.8 17.7 0.00 0.00 0.00 42 999.4
20260504184401 23 235 6.4 17.7 0.00 0.00 0.00 43 999.3
20260504184035 23 246 6.4 33.8 0.00 0.00 0.00 46 999.3
20260504183713 23 238 6.4 33.8 0.00 0.00 0.00 46 999.4
20260504183347 23 233 8.0 33.8 0.00 0.00 0.00 43 999.4
20260504183241 23 184 9.7 33.8 0.00 0.00 0.00 42 999.5
20260504183138 23 213 8.0 33.8 0.00 0.00 0.00 42 999.4
20260504183036 23 196 8.0 33.8 0.00 0.00 0.00 43 999.6
20260504182933 23 178 8.0 33.8 0.00 0.00 0.00 42 999.5
20260504182825 23 237 8.0 33.8 0.00 0.00 0.00 42 999.6
20260504182721 23 236 9.7 33.8 0.00 0.00 0.00 44 999.5
20260504182617 23 245 9.7 33.8 0.00 0.00 0.00 40 999.6
20260504182513 23 243 9.7 33.8 0.00 0.00 0.00 40 999.6
20260504182409 23 0 9.7 33.8 0.00 0.00 0.00 41 999.6
20260504182307 23 284 9.7 33.8 0.00 0.00 0.00 39 999.6
20260504182204 23 246 8.0 29.0 0.00 0.00 0.00 41 999.7
20260504182101 23 212 9.7 27.4 0.00 0.00 0.00 39 999.6
20260504181733 23 246 8.0 27.4 0.00 0.00 0.00 39 999.7
20260504181626 23 181 8.0 27.4 0.00 0.00 0.00 41 999.8
20260504181520 23 250 8.0 27.4 0.00 0.00 0.00 42 999.7
20260504181415 23 248 8.0 27.4 0.00 0.00 0.00 40 999.8
20260504181050 23 235 8.0 27.4 0.00 0.00 0.00 44 999.8
20260504180944 23 172 8.0 27.4 0.00 0.00 0.00 42 999.7
20260504180838 23 264 6.4 27.4 0.00 0.00 0.00 41 999.7
20260504180736 23 219 6.4 27.4 0.00 0.00 0.00 39 999.7
20260504180630 23 199 6.4 27.4 0.00 0.00 0.00 40 999.8
20260504180527 23 177 6.4 27.4 0.00 0.00 0.00 41 999.8
20260504180425 23 254 6.4 27.4 0.00 0.00 0.00 41 999.8
20260504180320 23 283 6.4 27.4 0.00 0.00 0.00 39 999.7
20260504180216 23 243 6.4 29.0 0.00 0.00 0.00 41 999.8
20260504180109 23 254 6.4 29.0 0.00 0.00 0.00 42 999.8
20260504180006 23 238 4.8 29.0 0.00 0.00 0.00 41 999.8
20260504175903 23 196 6.4 29.0 0.00 0.00 0.00 41 999.8
20260504175758 23 209 6.4 29.0 0.00 0.00 0.00 40 999.8
20260504175438 22 243 6.4 29.0 0.00 0.00 0.00 43 1000.0
20260504175336 22 235 6.4 29.0 0.00 0.00 0.00 42 1000.0
20260504175233 22 153 6.4 29.0 0.00 0.00 0.00 45 999.9
20260504174908 22 236 8.0 29.0 0.00 0.00 0.00 43 1000.0
20260504174803 22 192 8.0 29.0 0.00 0.00 0.00 44 1000.0
20260504174701 22 190 8.0 29.0 0.00 0.00 0.00 43 1000.1
20260504174340 22 241 9.7 29.0 0.00 0.00 0.00 44 1000.1
20260504174234 22 244 9.7 29.0 0.00 0.00 0.00 43 1000.2
20260504174127 22 271 9.7 22.5 0.00 0.00 0.00 43 1000.1
20260504174023 22 0 9.7 22.5 0.00 0.00 0.00 45 1000.2
20260504173917 22 249 9.7 22.5 0.00 0.00 0.00 46 1000.3
20260504173811 22 218 9.7 22.5 0.00 0.00 0.00 47 1000.3
20260504173704 22 245 9.7 22.5 0.00 0.00 0.00 44 1000.3
20260504173559 22 178 9.7 22.5 0.00 0.00 0.00 43 1000.3
20260504173453 22 181 8.0 22.5 0.00 0.00 0.00 43 1000.4
20260504173346 22 236 8.0 22.5 0.00 0.00 0.00 44 1000.4
20260504173019 22 284 6.4 22.5 0.00 0.00 0.00 44 1000.4
20260504172913 22 210 6.4 22.5 0.00 0.00 0.00 47 1000.3
20260504172808 22 215 6.4 22.5 0.00 0.00 0.00 45 1000.4
20260504172441 22 238 8.0 22.5 0.00 0.00 0.00 46 1000.4
20260504172337 22 222 8.0 22.5 0.00 0.00 0.00 46 1000.5
20260504172233 22 238 8.0 22.5 0.00 0.00 0.00 48 1000.4
20260504172126 22 220 9.7 22.5 0.00 0.00 0.00 46 1000.5
20260504171759 22 185 8.0 22.5 0.00 0.00 0.00 47 1000.6
20260504171656 22 164 8.0 22.5 0.00 0.00 0.00 46 1000.6
20260504171549 22 197 8.0 20.9 0.00 0.00 0.00 46 1000.6
20260504171228 22 185 4.8 20.9 0.00 0.00 0.00 45 1000.5
20260504171125 22 0 4.8 20.9 0.00 0.00 0.00 47 1000.5
20260504171020 22 188 6.4 20.9 0.00 0.00 0.00 48 1000.6
20260504170914 22 165 6.4 20.9 0.00 0.00 0.00 47 1000.6
20260504170550 22 190 4.8 20.9 0.00 0.00 0.00 50 1000.8
20260504170445 22 204 6.4 20.9 0.00 0.00 0.00 51 1000.8
20260504170338 22 271 6.4 20.9 0.00 0.00 0.00 49 1000.8
20260504170234 22 236 6.4 20.9 0.00 0.00 0.00 49 1000.9
20260504170126 22 226 6.4 20.9 0.00 0.00 0.00 49 1000.9
20260504160342 21 153 6.4 20.9 0.00 0.00 0.00 51 1001.6
20260504151108 19 221 3.2 19.3 0.00 0.00 0.00 59 1002.1
20260504150526 19 0 6.4 19.3 0.00 0.00 0.00 56 1002.2
20260504150421 19 234 4.8 14.5 0.00 0.00 0.00 59 1002.3
20260504150316 19 180 4.8 14.5 0.00 0.00 0.00 58 1002.1
20260504150213 18 214 4.8 12.9 0.00 0.00 0.00 58 1002.2
20260504150110 18 262 4.8 12.9 0.00 0.00 0.00 57 1002.2
20260504120309 11 182 0.0 12.9 0.00 0.00 0.00 74 1003.4
20260504120207 11 184 0.0 12.9 0.00 0.00 0.00 74 1003.4
20260504120105 11 194 1.6 12.9 0.00 0.00 0.00 74 1003.4
20260504110637 9 170 0.0 0.0 0.00 0.00 0.00 77 1003.3
20260504110530 9 170 0.0 0.0 0.00 0.00 0.00 77 1003.3
20260504110425 9 192 0.0 0.0 0.00 0.00 0.00 77 1003.2
20260504110320 9 192 0.0 0.0 0.00 0.00 0.00 77 1003.3
20260504110217 9 192 0.0 0.0 0.00 0.00 0.00 77 1003.3
20260504110113 9 198 0.0 4.8 0.00 0.00 0.00 77 1003.3
20260504100608 9 208 0.0 0.0 0.00 0.00 0.00 76 1003.0
20260504100506 9 200 0.0 0.0 0.00 0.00 0.00 76 1003.1
20260504100405 9 204 0.0 8.0 0.00 0.00 0.00 76 1003.1
20260504100301 9 219 0.0 8.0 0.00 0.00 0.00 76 1003.1
20260504100159 9 214 0.0 8.0 0.00 0.00 0.00 76 1003.1
20260504082003 10 190 1.6 9.7 0.00 0.00 0.00 75 1003.7
20260504081859 10 209 1.6 9.7 0.00 0.00 0.00 74 1003.7
20260504081754 10 199 1.6 9.7 0.00 0.00 0.00 74 1003.7
20260504081649 10 178 1.6 9.7 0.00 0.00 0.00 74 1003.8
20260504081545 10 200 1.6 9.7 0.00 0.00 0.00 74 1003.8
20260504081438 10 189 1.6 9.7 0.00 0.00 0.00 74 1003.8
20260504081334 10 183 1.6 9.7 0.00 0.00 0.00 74 1003.8
20260504081231 10 248 1.6 9.7 0.00 0.00 0.00 74 1003.8
20260504081129 10 172 3.2 9.7 0.00 0.00 0.00 74 1003.8
20260504081024 10 169 1.6 9.7 0.00 0.00 0.00 74 1003.8
20260504080920 10 213 1.6 9.7 0.00 0.00 0.00 74 1003.9
20260504080814 10 186 1.6 9.7 0.00 0.00 0.00 74 1003.8
20260504080706 10 180 1.6 9.7 0.00 0.00 0.00 74 1003.8
20260504080558 10 187 1.6 9.7 0.00 0.00 0.00 74 1003.8
20260504080232 10 178 0.0 9.7 0.00 0.00 0.00 74 1003.8
20260504080126 10 206 0.0 9.7 0.00 0.00 0.00 74 1003.8
20260504070209 10 173 3.2 14.5 0.00 0.00 0.00 74 1004.6
20260504070104 10 208 3.2 14.5 0.00 0.00 0.00 74 1004.6
20260504060206 10 185 6.4 17.7 0.00 0.00 0.00 73 1005.3
20260504050437 10 184 6.4 16.1 0.00 0.00 0.00 71 1006.1
20260504050331 10 157 6.4 16.1 0.00 0.00 0.00 71 1006.0
20260504050224 10 214 6.4 16.1 0.00 0.00 0.00 71 1006.0
20260504045639 10 198 6.4 20.9 0.00 0.00 0.00 71 1006.0
20260504045531 10 216 6.4 20.9 0.00 0.00 0.00 71 1006.0
20260504045425 10 195 6.4 20.9 0.00 0.00 0.00 71 1006.1
20260504045058 10 176 6.4 20.9 0.00 0.00 0.00 71 1006.0
20260504044951 10 249 6.4 20.9 0.00 0.00 0.00 71 1006.0
20260504044631 10 275 6.4 20.9 0.00 0.00 0.00 71 1006.1
20260504044526 10 202 6.4 20.9 0.00 0.00 0.00 71 1006.1
20260504044423 10 148 6.4 20.9 0.00 0.00 0.00 71 1006.2
20260504044317 10 184 6.4 20.9 0.00 0.00 0.00 71 1006.2
20260504044210 10 194 6.4 20.9 0.00 0.00 0.00 71 1006.1
20260504044107 10 0 6.4 20.9 0.00 0.00 0.00 71 1006.1
20260504044003 10 196 6.4 20.9 0.00 0.00 0.00 71 1006.2
20260504043856 10 196 6.4 20.9 0.00 0.00 0.00 71 1006.2
20260504043528 10 178 4.8 16.1 0.00 0.00 0.00 71 1006.2
20260504043423 10 215 4.8 16.1 0.00 0.00 0.00 71 1006.3
20260504043317 10 144 4.8 16.1 0.00 0.00 0.00 71 1006.3
20260504043213 10 200 4.8 16.1 0.00 0.00 0.00 71 1006.3
20260504043111 10 185 3.2 16.1 0.00 0.00 0.00 71 1006.3
20260504043005 10 233 3.2 16.1 0.00 0.00 0.00 71 1006.3
20260504042858 10 175 4.8 16.1 0.00 0.00 0.00 71 1006.4
20260504042751 10 199 4.8 16.1 0.00 0.00 0.00 71 1006.4
20260504042427 10 187 3.2 14.5 0.00 0.00 0.00 71 1006.4
20260504042102 10 180 4.8 14.5 0.00 0.00 0.00 71 1006.4
20260504042000 10 228 4.8 14.5 0.00 0.00 0.00 71 1006.4
20260504041854 10 159 3.2 14.5 0.00 0.00 0.00 71 1006.4
20260504041747 10 180 4.8 12.9 0.00 0.00 0.00 71 1006.4
20260504041642 10 235 4.8 12.9 0.00 0.00 0.00 71 1006.4
20260504041540 10 159 4.8 12.9 0.00 0.00 0.00 71 1006.4
20260504041436 10 188 4.8 12.9 0.00 0.00 0.00 71 1006.4
20260504041329 10 167 4.8 12.9 0.00 0.00 0.00 71 1006.5
20260504041226 10 172 4.8 12.9 0.00 0.00 0.00 71 1006.4
20260504041121 10 216 4.8 12.9 0.00 0.00 0.00 71 1006.4
20260504041015 10 174 4.8 30.6 0.00 0.00 0.00 71 1006.5
20260504040910 10 192 6.4 30.6 0.00 0.00 0.00 70 1006.5
20260504040806 10 180 6.4 30.6 0.00 0.00 0.00 70 1006.5
20260504040702 10 175 6.4 30.6 0.00 0.00 0.00 70 1006.5
20260504040335 10 175 6.4 30.6 0.00 0.00 0.00 70 1006.6
20260504040230 10 146 6.4 30.6 0.00 0.00 0.00 70 1006.6
20260504040126 10 193 6.4 30.6 0.00 0.00 0.00 70 1006.6
20260504040021 10 188 6.4 30.6 0.00 0.00 0.00 70 1006.6
20260504035914 10 180 6.4 30.6 0.00 0.00 0.00 70 1006.6
20260504035546 10 209 6.4 30.6 0.00 0.00 0.00 70 1006.6
20260504035444 10 233 6.4 30.6 0.00 0.00 0.00 70 1006.6
20260504035340 10 207 6.4 30.6 0.00 0.00 0.00 70 1006.6
20260504035234 10 155 8.0 30.6 0.00 0.00 0.00 70 1006.7
20260504035127 10 218 8.0 30.6 0.00 0.00 0.00 70 1006.6
20260504035021 10 229 6.4 25.7 0.00 0.00 0.00 70 1006.7
20260504034655 10 201 6.4 17.7 0.00 0.00 0.00 70 1006.9
20260504034553 10 185 6.4 17.7 0.00 0.00 0.00 70 1006.8
20260504034447 10 213 6.4 17.7 0.00 0.00 0.00 70 1006.7
20260504033858 10 198 4.8 12.9 0.00 0.00 0.00 70 1006.8
20260504033755 10 207 4.8 12.9 0.00 0.00 0.00 70 1006.7
20260504033653 10 177 4.8 12.9 0.00 0.00 0.00 70 1006.9
20260504033546 10 171 4.8 16.1 0.00 0.00 0.00 70 1006.9
20260504033441 10 178 4.8 16.1 0.00 0.00 0.00 70 1006.9
20260504033120 10 182 4.8 16.1 0.00 0.00 0.00 70 1007.0
20260504033017 10 184 4.8 16.1 0.00 0.00 0.00 70 1007.0
20260504032652 10 195 6.4 16.1 0.00 0.00 0.00 70 1007.0
20260504032548 10 167 6.4 19.3 0.00 0.00 0.00 70 1007.0
20260504032443 10 262 6.4 19.3 0.00 0.00 0.00 70 1007.0
20260504032335 10 158 6.4 19.3 0.00 0.00 0.00 70 1006.9
20260504032228 10 190 6.4 19.3 0.00 0.00 0.00 70 1007.0
20260504032125 10 219 6.4 19.3 0.00 0.00 0.00 70 1007.0
20260504031542 10 180 4.8 19.3 0.00 0.00 0.00 71 1007.1
20260504031437 10 194 4.8 19.3 0.00 0.00 0.00 71 1007.0
20260504031333 10 171 4.8 19.3 0.00 0.00 0.00 71 1007.1
20260504031230 10 141 4.8 19.3 0.00 0.00 0.00 71 1007.1
20260504031127 10 160 3.2 19.3 0.00 0.00 0.00 71 1007.1
20260504031024 10 188 4.8 19.3 0.00 0.00 0.00 71 1007.1
20260504030918 10 190 4.8 19.3 0.00 0.00 0.00 71 1007.1
20260504030111 10 217 4.8 16.1 0.00 0.00 0.00 71 1007.2
20260504030007 10 189 4.8 16.1 0.00 0.00 0.00 71 1007.3
20260504025901 10 182 3.2 16.1 0.00 0.00 0.00 72 1007.3
20260504025758 10 199 3.2 16.1 0.00 0.00 0.00 72 1007.3
20260504025654 10 194 3.2 16.1 0.00 0.00 0.00 72 1007.2
20260504025548 10 204 3.2 16.1 0.00 0.00 0.00 72 1007.2
20260504025442 10 141 3.2 14.5 0.00 0.00 0.00 72 1007.2
20260504025339 10 213 3.2 14.5 0.00 0.00 0.00 72 1007.3
20260504025236 10 183 3.2 14.5 0.00 0.00 0.00 72 1007.3
20260504025128 10 198 3.2 14.5 0.00 0.00 0.00 72 1007.3
20260504025021 10 218 3.2 14.5 0.00 0.00 0.00 72 1007.3
20260504024655 10 248 3.2 24.1 0.00 0.00 0.00 72 1007.4
20260504024548 10 168 4.8 24.1 0.00 0.00 0.00 72 1007.3
20260504024441 10 213 4.8 24.1 0.00 0.00 0.00 72 1007.4
20260504024117 10 213 3.2 24.1 0.00 0.00 0.00 72 1007.4
20260504024011 10 189 4.8 24.1 0.00 0.00 0.00 72 1007.4
20260504023907 10 197 4.8 24.1 0.00 0.00 0.00 72 1007.4
20260504023803 10 173 6.4 24.1 0.00 0.00 0.00 72 1007.4
20260504023438 10 257 4.8 24.1 0.00 0.00 0.00 71 1007.4
20260504022851 10 148 4.8 24.1 0.00 0.00 0.00 71 1007.3
20260504022749 10 225 6.4 14.5 0.00 0.00 0.00 71 1007.3
20260504022644 10 160 6.4 14.5 0.00 0.00 0.00 71 1007.4
20260504022541 10 213 6.4 14.5 0.00 0.00 0.00 71 1007.4
20260504022439 10 202 6.4 14.5 0.00 0.00 0.00 71 1007.4
20260504022116 10 177 4.8 12.9 0.00 0.00 0.00 72 1007.4
20260504022011 10 167 4.8 16.1 0.00 0.00 0.00 72 1007.4
20260504021906 10 174 4.8 16.1 0.00 0.00 0.00 72 1007.4
20260504021801 10 174 4.8 16.1 0.00 0.00 0.00 72 1007.4
20260504021658 10 167 4.8 16.1 0.00 0.00 0.00 72 1007.4
20260504021551 10 174 4.8 16.1 0.00 0.00 0.00 72 1007.4
20260504021448 10 188 4.8 16.1 0.00 0.00 0.00 72 1007.4
20260504021342 10 178 4.8 16.1 0.00 0.00 0.00 72 1007.4
20260504021235 10 188 4.8 16.1 0.00 0.00 0.00 72 1007.4
20260504021131 10 177 4.8 16.1 0.00 0.00 0.00 72 1007.5
20260504021029 10 201 6.4 16.1 0.00 0.00 0.00 72 1007.4
20260504020707 10 173 6.4 16.1 0.00 0.00 0.00 71 1007.4
20260504020600 10 202 6.4 16.1 0.00 0.00 0.00 71 1007.4
20260504020455 10 194 4.8 16.1 0.00 0.00 0.00 71 1007.4
20260504015910 10 196 4.8 12.9 0.00 0.00 0.00 71 1007.4
20260504015546 10 167 3.2 12.9 0.00 0.00 0.00 71 1007.4
20260504015441 10 184 3.2 12.9 0.00 0.00 0.00 71 1007.4
20260504015339 10 168 3.2 12.9 0.00 0.00 0.00 71 1007.4
20260504015014 10 180 1.6 8.0 0.00 0.00 0.00 71 1007.5
20260504014908 10 172 1.6 8.0 0.00 0.00 0.00 71 1007.5
20260504014803 10 207 3.2 8.0 0.00 0.00 0.00 71 1007.5
20260504014658 10 180 3.2 14.5 0.00 0.00 0.00 71 1007.5
20260504014556 10 181 4.8 14.5 0.00 0.00 0.00 71 1007.5
20260504014234 10 196 4.8 14.5 0.00 0.00 0.00 71 1007.5
20260504014131 10 178 4.8 14.5 0.00 0.00 0.00 71 1007.4
20260504013804 10 175 4.8 14.5 0.00 0.00 0.00 71 1007.5
20260504013659 10 182 4.8 17.7 0.00 0.00 0.00 71 1007.4
20260504013119 10 202 4.8 17.7 0.00 0.00 0.00 70 1007.4
20260504013011 10 210 4.8 17.7 0.00 0.00 0.00 70 1007.4
20260504012907 10 167 4.8 17.7 0.00 0.00 0.00 70 1007.5
20260504012320 10 169 4.8 17.7 0.00 0.00 0.00 70 1007.5
20260504012216 10 188 4.8 17.7 0.00 0.00 0.00 70 1007.4
20260504011632 10 188 3.2 14.5 0.00 0.00 0.00 70 1007.6
20260504011528 10 211 3.2 14.5 0.00 0.00 0.00 70 1007.6
20260504011424 11 188 3.2 14.5 0.00 0.00 0.00 70 1007.6
20260504011319 11 184 3.2 14.5 0.00 0.00 0.00 70 1007.6
20260504011217 11 198 3.2 14.5 0.00 0.00 0.00 70 1007.6
20260504011110 11 189 3.2 14.5 0.00 0.00 0.00 69 1007.6
20260504010748 11 184 4.8 14.5 0.00 0.00 0.00 69 1007.7
20260504010646 11 190 4.8 14.5 0.00 0.00 0.00 69 1007.7
20260504010544 11 218 4.8 14.5 0.00 0.00 0.00 69 1007.6
20260504010442 11 199 4.8 14.5 0.00 0.00 0.00 69 1007.6
20260504010339 11 210 4.8 14.5 0.00 0.00 0.00 69 1007.7
20260504010237 11 184 4.8 14.5 0.00 0.00 0.00 69 1007.6
20260504010133 11 171 4.8 14.5 0.00 0.00 0.00 69 1007.6
20260504010026 11 0 3.2 14.5 0.00 0.00 0.00 69 1007.7
20260504005656 11 228 4.8 11.3 0.00 0.00 0.00 69 1007.6
20260504005551 11 222 4.8 11.3 0.00 0.00 0.00 69 1007.7
20260504005447 11 165 4.8 11.3 0.00 0.00 0.00 68 1007.7
20260504005341 11 209 3.2 11.3 0.00 0.00 0.00 68 1007.7
20260504005235 11 221 3.2 11.3 0.00 0.00 0.00 68 1007.7
20260504004908 11 186 3.2 19.3 0.00 0.00 0.00 68 1007.8
20260504004805 11 223 3.2 19.3 0.00 0.00 0.00 68 1007.8
20260504004702 11 190 3.2 19.3 0.00 0.00 0.00 68 1007.8
20260504004556 11 199 3.2 19.3 0.00 0.00 0.00 68 1007.8
20260504004450 11 184 3.2 19.3 0.00 0.00 0.00 67 1007.8
20260504004342 11 180 4.8 19.3 0.00 0.00 0.00 67 1007.8
20260504003758 11 200 4.8 19.3 0.00 0.00 0.00 67 1007.8
20260504003216 11 163 4.8 19.3 0.00 0.00 0.00 66 1007.8
20260504003111 11 163 4.8 19.3 0.00 0.00 0.00 66 1007.9
20260504003009 11 173 3.2 16.1 0.00 0.00 0.00 66 1007.9
20260504002903 11 217 3.2 12.9 0.00 0.00 0.00 66 1007.9
20260504002756 11 196 3.2 12.9 0.00 0.00 0.00 66 1007.9
20260504002429 11 204 3.2 11.3 0.00 0.00 0.00 66 1007.9
20260504002326 12 166 3.2 11.3 0.00 0.00 0.00 66 1007.9
20260504002224 12 202 1.6 11.3 0.00 0.00 0.00 66 1007.9
20260504002122 12 177 1.6 11.3 0.00 0.00 0.00 66 1008.0
20260504002019 12 202 1.6 11.3 0.00 0.00 0.00 66 1008.0
20260504001912 12 173 1.6 11.3 0.00 0.00 0.00 66 1008.0
20260504001807 12 153 1.6 11.3 0.00 0.00 0.00 66 1008.0
20260504001703 12 202 1.6 11.3 0.00 0.00 0.00 65 1008.0
20260504001342 12 179 1.6 0.0 0.00 0.00 0.00 66 1008.0
20260504001017 12 179 3.2 16.1 0.00 0.00 0.00 66 1008.0
20260504000913 12 182 1.6 16.1 0.00 0.00 0.00 65 1008.0
20260504000810 12 234 1.6 16.1 0.00 0.00 0.00 66 1008.0
20260504000704 12 205 1.6 16.1 0.00 0.00 0.00 65 1008.0
20260504000336 12 188 3.2 16.1 0.00 0.00 0.00 65 1008.0
20260504000229 12 229 3.2 16.1 0.00 0.00 0.00 65 1008.0
20260504000121 12 223 3.2 16.1 0.00 0.00 0.00 66 1008.0
20260504000014 12 221 3.2 16.1 0.00 0.00 0.00 65 1008.1
20260503235647 12 211 3.2 16.1 0.00 0.00 0.00 65 1008.1
20260503235539 12 239 3.2 16.1 0.00 0.00 0.00 65 1008.0
20260503235432 12 194 3.2 14.5 0.00 0.00 0.00 65 1008.0
20260503235327 12 213 3.2 14.5 0.00 0.00 0.00 65 1008.0
20260503235225 12 189 3.2 14.5 0.00 0.00 0.00 65 1008.1
20260503235119 12 233 3.2 14.5 0.00 0.00 0.00 65 1008.1
20260503235014 12 229 3.2 14.5 0.00 0.00 0.00 65 1008.2
20260503234910 12 200 3.2 14.5 0.00 0.00 0.00 65 1008.1
20260503234806 12 235 4.8 14.5 0.00 0.00 0.00 65 1008.1
20260503234704 12 195 3.2 14.5 0.00 0.00 0.00 65 1008.2
20260503234558 12 223 3.2 14.5 0.00 0.00 0.00 65 1008.1
20260503234452 12 218 3.2 12.9 0.00 0.00 0.00 65 1008.2
20260503234347 12 247 3.2 12.9 0.00 0.00 0.00 65 1008.2
20260503234243 12 219 1.6 12.9 0.00 0.00 0.00 65 1008.2
20260503234137 12 251 3.2 12.9 0.00 0.00 0.00 65 1008.2
20260503234028 12 196 3.2 12.9 0.00 0.00 0.00 65 1008.2
20260503233926 12 199 3.2 12.9 0.00 0.00 0.00 65 1008.2
20260503233818 12 208 3.2 12.9 0.00 0.00 0.00 65 1008.2
20260503233715 12 178 3.2 12.9 0.00 0.00 0.00 65 1008.2
20260503233611 12 257 3.2 12.9 0.00 0.00 0.00 65 1008.2
20260503233023 12 259 4.8 14.5 0.00 0.00 0.00 64 1008.2
20260503232920 12 271 4.8 14.5 0.00 0.00 0.00 64 1008.3
20260503232555 12 255 4.8 14.5 0.00 0.00 0.00 64 1008.2
20260503232450 12 256 4.8 14.5 0.00 0.00 0.00 64 1008.3
20260503232346 12 199 4.8 14.5 0.00 0.00 0.00 63 1008.3
20260503232020 12 224 6.4 27.4 0.00 0.00 0.00 63 1008.3
20260503231701 12 181 6.4 27.4 0.00 0.00 0.00 62 1008.3
20260503231556 12 202 6.4 27.4 0.00 0.00 0.00 63 1008.4
20260503231452 12 248 6.4 27.4 0.00 0.00 0.00 62 1008.3
20260503231348 12 233 6.4 27.4 0.00 0.00 0.00 62 1008.4
20260503231242 12 267 6.4 27.4 0.00 0.00 0.00 62 1008.4
20260503231137 12 205 8.0 27.4 0.00 0.00 0.00 62 1008.4
20260503231031 12 251 8.0 27.4 0.00 0.00 0.00 62 1008.4
20260503230925 12 251 8.0 27.4 0.00 0.00 0.00 62 1008.4
20260503230823 12 223 8.0 27.4 0.00 0.00 0.00 62 1008.4
20260503230716 12 172 8.0 27.4 0.00 0.00 0.00 62 1008.5
20260503230611 12 195 8.0 27.4 0.00 0.00 0.00 62 1008.5
20260503230506 12 275 9.7 27.4 0.00 0.00 0.00 62 1008.5
20260503230143 13 208 9.7 27.4 0.00 0.00 0.00 62 1008.4
20260503230040 13 273 9.7 25.7 0.00 0.00 0.00 62 1008.6
20260503225715 13 173 9.7 25.7 0.00 0.00 0.00 62 1008.5
20260503225608 13 250 9.7 25.7 0.00 0.00 0.00 61 1008.5
20260503225503 13 219 9.7 25.7 0.00 0.00 0.00 62 1008.6
20260503225400 13 258 9.7 25.7 0.00 0.00 0.00 62 1009.0
20260503225257 13 246 9.7 25.7 0.00 0.00 0.00 62 1008.6
20260503225150 13 250 9.7 25.7 0.00 0.00 0.00 61 1008.7
20260503224825 13 185 9.7 25.7 0.00 0.00 0.00 61 1008.5
20260503224718 13 220 9.7 25.7 0.00 0.00 0.00 61 1008.5
20260503224357 13 256 8.0 22.5 0.00 0.00 0.00 60 1008.6
20260503224029 13 224 9.7 27.4 0.00 0.00 0.00 59 1008.6
20260503223922 13 249 9.7 27.4 0.00 0.00 0.00 59 1008.8
20260503223820 13 221 9.7 27.4 0.00 0.00 0.00 59 1008.7
20260503223715 13 188 11.3 27.4 0.00 0.00 0.00 59 1008.7
20260503223609 13 268 11.3 27.4 0.00 0.00 0.00 59 1008.6
20260503223505 13 267 12.9 27.4 0.00 0.00 0.00 59 1008.5
20260503223401 13 209 12.9 27.4 0.00 0.00 0.00 59 1008.3
20260503223255 14 236 12.9 27.4 0.00 0.00 0.00 59 1008.5
20260503223149 14 274 12.9 27.4 0.00 0.00 0.00 59 1008.4
20260503223044 14 229 12.9 27.4 0.00 0.00 0.00 58 1008.4
20260503222938 14 252 12.9 27.4 0.00 0.00 0.00 58 1008.4
20260503222834 14 254 12.9 27.4 0.00 0.00 0.00 57 1008.4
20260503222731 14 200 12.9 27.4 0.00 0.00 0.00 57 1008.4
20260503222626 14 218 12.9 27.4 0.00 0.00 0.00 57 1008.4
20260503222257 15 257 12.9 27.4 0.00 0.00 0.00 56 1008.3
20260503221932 15 259 12.9 35.4 0.00 0.00 0.00 55 1008.3
20260503221825 15 245 11.3 35.4 0.00 0.00 0.00 55 1008.3
20260503221722 15 290 11.3 35.4 0.00 0.00 0.00 54 1008.2
20260503220911 15 259 12.9 35.4 0.00 0.00 0.00 53 1008.3
20260503220804 15 261 12.9 35.4 0.00 0.00 0.00 53 1008.2
20260503220659 15 297 12.9 35.4 0.00 0.00 0.00 52 1008.2
20260503220557 15 268 11.3 35.4 0.00 0.00 0.00 52 1008.2
20260503220450 15 273 11.3 35.4 0.00 0.00 0.00 52 1008.2
20260503220345 15 263 11.3 35.4 0.00 0.00 0.00 52 1008.2
20260503220242 15 254 9.7 35.4 0.00 0.00 0.00 52 1008.2
20260503220139 16 243 9.7 35.4 0.00 0.00 0.00 51 1008.1
20260503220033 16 263 8.0 35.4 0.00 0.00 0.00 51 1008.1
20260503215930 16 248 8.0 24.1 0.00 0.00 0.00 50 1008.1
20260503215823 16 219 8.0 24.1 0.00 0.00 0.00 51 1008.1
20260503215458 16 239 9.7 24.1 0.00 0.00 0.00 49 1008.1
20260503215350 16 250 9.7 24.1 0.00 0.00 0.00 50 1008.0
20260503215247 16 267 9.7 24.1 0.00 0.00 0.00 51 1008.0
20260503215142 15 221 9.7 24.1 0.00 0.00 0.00 49 1008.1
20260503215040 15 246 9.7 24.1 0.00 0.00 0.00 49 1008.0
20260503214937 16 235 9.7 24.1 0.00 0.00 0.00 50 1007.9
20260503214834 16 199 9.7 24.1 0.00 0.00 0.00 48 1008.0
20260503214727 16 298 9.7 24.1 0.00 0.00 0.00 48 1008.0
20260503214141 16 256 9.7 30.6 0.00 0.00 0.00 49 1008.1
20260503213820 16 263 9.7 30.6 0.00 0.00 0.00 48 1008.0
20260503213716 16 190 9.7 30.6 0.00 0.00 0.00 48 1008.0
20260503213611 16 223 11.3 30.6 0.00 0.00 0.00 47 1008.0
20260503213504 16 224 9.7 30.6 0.00 0.00 0.00 47 1008.0
20260503213401 16 175 9.7 30.6 0.00 0.00 0.00 47 1008.0
20260503213259 16 227 9.7 30.6 0.00 0.00 0.00 48 1008.1
20260503212939 16 248 9.7 30.6 0.00 0.00 0.00 49 1008.0
20260503212835 16 227 9.7 30.6 0.00 0.00 0.00 48 1007.8
20260503212732 16 226 9.7 30.6 0.00 0.00 0.00 47 1007.9
20260503212629 16 250 8.0 30.6 0.00 0.00 0.00 48 1007.9
20260503212526 16 175 8.0 29.0 0.00 0.00 0.00 49 1008.0
20260503212419 16 226 8.0 29.0 0.00 0.00 0.00 47 1008.0
20260503212053 16 274 9.7 30.6 0.00 0.00 0.00 48 1008.1
20260503211948 16 293 9.7 30.6 0.00 0.00 0.00 48 1008.1
20260503211845 16 274 9.7 30.6 0.00 0.00 0.00 48 1008.1
20260503211741 16 223 11.3 30.6 0.00 0.00 0.00 48 1008.0
20260503211635 16 192 11.3 30.6 0.00 0.00 0.00 47 1008.1
20260503211532 16 238 11.3 30.6 0.00 0.00 0.00 48 1008.0
20260503211426 16 222 11.3 30.6 0.00 0.00 0.00 48 1008.1
20260503211323 16 236 11.3 30.6 0.00 0.00 0.00 49 1008.1
20260503211219 16 259 11.3 30.6 0.00 0.00 0.00 49 1008.1
20260503211116 16 279 11.3 30.6 0.00 0.00 0.00 47 1008.1
20260503211011 16 248 11.3 30.6 0.00 0.00 0.00 47 1008.0
20260503210909 16 262 11.3 30.6 0.00 0.00 0.00 47 1008.0
20260503210801 16 185 9.7 30.6 0.00 0.00 0.00 47 1008.2
20260503210658 16 219 9.7 30.6 0.00 0.00 0.00 47 1008.1
20260503210551 16 235 9.7 30.6 0.00 0.00 0.00 47 1008.0
20260503210444 16 234 9.7 30.6 0.00 0.00 0.00 47 1008.1
20260503210341 16 177 9.7 30.6 0.00 0.00 0.00 47 1008.1
20260503210238 16 264 8.0 30.6 0.00 0.00 0.00 47 1008.1
20260503210133 16 249 8.0 30.6 0.00 0.00 0.00 46 1008.1
20260503210032 16 263 8.0 29.0 0.00 0.00 0.00 47 1008.2
20260503205929 16 208 8.0 29.0 0.00 0.00 0.00 47 1008.2
20260503205823 16 285 8.0 29.0 0.00 0.00 0.00 46 1008.2
20260503205720 16 245 8.0 29.0 0.00 0.00 0.00 47 1008.2
20260503205618 16 221 9.7 29.0 0.00 0.00 0.00 46 1008.3
20260503205513 16 236 9.7 29.0 0.00 0.00 0.00 47 1008.2
20260503205410 16 238 9.7 29.0 0.00 0.00 0.00 46 1008.3
20260503205304 16 207 9.7 29.0 0.00 0.00 0.00 48 1008.2
20260503205200 16 163 9.7 29.0 0.00 0.00 0.00 47 1008.3
20260503205052 16 229 9.7 29.0 0.00 0.00 0.00 45 1008.2
20260503204728 16 158 9.7 29.0 0.00 0.00 0.00 45 1008.3
20260503204626 16 215 9.7 29.0 0.00 0.00 0.00 45 1008.3
20260503204517 16 261 8.0 29.0 0.00 0.00 0.00 46 1008.2
20260503204415 16 249 8.0 29.0 0.00 0.00 0.00 45 1008.3
20260503204055 16 236 8.0 22.5 0.00 0.00 0.00 45 1008.2
20260503203949 16 234 8.0 20.9 0.00 0.00 0.00 45 1008.3
20260503203844 16 234 8.0 20.9 0.00 0.00 0.00 45 1008.2
20260503203739 16 252 8.0 20.9 0.00 0.00 0.00 46 1008.3
20260503203156 16 224 11.3 30.6 0.00 0.00 0.00 43 1008.3
20260503203050 16 252 11.3 30.6 0.00 0.00 0.00 44 1008.4
20260503202945 17 250 11.3 30.6 0.00 0.00 0.00 44 1008.4
20260503202840 17 223 12.9 30.6 0.00 0.00 0.00 45 1008.4
20260503202735 17 289 11.3 30.6 0.00 0.00 0.00 44 1008.4
20260503202633 17 269 11.3 32.2 0.00 0.00 0.00 46 1008.4
20260503202525 17 288 11.3 32.2 0.00 0.00 0.00 47 1008.4
20260503202422 17 193 11.3 32.2 0.00 0.00 0.00 47 1008.3
20260503202317 17 252 11.3 32.2 0.00 0.00 0.00 45 1008.4
20260503202214 17 160 12.9 32.2 0.00 0.00 0.00 45 1008.4
20260503202108 17 259 12.9 32.2 0.00 0.00 0.00 45 1008.3
20260503202004 17 278 11.3 32.2 0.00 0.00 0.00 46 1008.4
20260503201900 17 305 11.3 32.2 0.00 0.00 0.00 44 1008.5
20260503201754 17 281 11.3 32.2 0.00 0.00 0.00 45 1008.5
20260503201650 17 168 11.3 32.2 0.00 0.00 0.00 43 1008.5
20260503201547 17 251 11.3 32.2 0.00 0.00 0.00 44 1008.5
20260503201442 17 246 12.9 32.2 0.00 0.00 0.00 44 1008.5
20260503201336 17 217 12.9 32.2 0.00 0.00 0.00 42 1008.5
20260503201233 17 266 11.3 32.2 0.00 0.00 0.00 44 1008.5
20260503201128 17 221 11.3 32.2 0.00 0.00 0.00 45 1008.6
20260503201023 17 261 9.7 32.2 0.00 0.00 0.00 45 1008.5
20260503200700 17 248 9.7 32.2 0.00 0.00 0.00 45 1008.5
20260503200337 17 223 9.7 25.7 0.00 0.00 0.00 45 1008.6
20260503200230 17 174 9.7 25.7 0.00 0.00 0.00 46 1008.6
20260503195906 17 258 9.7 32.2 0.00 0.00 0.00 44 1008.5
20260503195803 17 250 11.3 32.2 0.00 0.00 0.00 44 1008.6
20260503195657 17 218 11.3 32.2 0.00 0.00 0.00 46 1008.7
20260503195550 16 283 11.3 32.2 0.00 0.00 0.00 45 1008.6
20260503195444 16 278 11.3 32.2 0.00 0.00 0.00 48 1008.5
20260503195121 16 276 11.3 32.2 0.00 0.00 0.00 45 1008.7
20260503195014 16 245 11.3 32.2 0.00 0.00 0.00 44 1008.6
20260503194912 16 269 11.3 32.2 0.00 0.00 0.00 45 1008.7
20260503194546 16 250 8.0 32.2 0.00 0.00 0.00 46 1008.8
20260503194443 16 181 8.0 32.2 0.00 0.00 0.00 46 1008.8
20260503194335 16 206 9.7 32.2 0.00 0.00 0.00 45 1008.8
20260503194230 16 266 8.0 32.2 0.00 0.00 0.00 44 1008.7
20260503194127 16 182 8.0 32.2 0.00 0.00 0.00 44 1008.8
20260503194024 16 236 8.0 30.6 0.00 0.00 0.00 44 1008.8
20260503193922 17 265 8.0 27.4 0.00 0.00 0.00 45 1008.8
20260503193815 17 271 8.0 27.4 0.00 0.00 0.00 46 1008.9
20260503193713 17 267 8.0 27.4 0.00 0.00 0.00 44 1008.9
20260503193608 17 235 8.0 27.4 0.00 0.00 0.00 46 1008.9
20260503193502 17 244 8.0 27.4 0.00 0.00 0.00 46 1008.9
20260503193400 17 212 8.0 27.4 0.00 0.00 0.00 46 1009.0
20260503193258 17 240 8.0 27.4 0.00 0.00 0.00 48 1009.0
20260503192937 17 246 8.0 32.2 0.00 0.00 0.00 44 1009.0
20260503192833 17 234 8.0 32.2 0.00 0.00 0.00 46 1009.1
20260503192727 17 226 9.7 32.2 0.00 0.00 0.00 47 1009.1
20260503192624 17 251 9.7 32.2 0.00 0.00 0.00 45 1009.0
20260503192519 17 263 11.3 32.2 0.00 0.00 0.00 44 1009.1